Home > Weather > Yekaterinburg > Past weeks

Flag for Russia Past Weather in Yekaterinburg, Russia — Yesterday and Last 2 Weeks

Now
55 °F

Fog.


Feels Like: 55 °F
Forecast: 59 / 77 °F
Wind: 1 mph from South

Location: Ekaterinburg

Current Time: Jul 28, 2016 at 5:58:53 AM

Latest Report: Jul 28, 2016 at 5:30 AM


Visibility: 3 mi

Pressure: 29.86 "Hg

Humidity: 100%

Dew Point: 55 °F

Location of YekaterinburgLocation

Past Weather in Yekaterinburg — Graph

°F

Yekaterinburg Temperature Yesterday

Maximum temperature yesterday: 81 °F (at 12:30 PM)
Minimum temperature yesterday: 48 °F (at 3:30 AM)
Average temperature yesterday: 63 °F

High & Low Weather Summary for the Past Weeks

 TemperatureHumidityPressure
High84 °F (Jul 22, 2:00 PM)100% (Jul 13, 3:30 PM)30.07 "Hg (Jul 13, 3:30 PM)
Low46 °F (Jul 26, 5:00 AM)37% (Jul 20, 4:30 PM)29.50 "Hg (Jul 14, 8:00 AM)
Average67 °F79%29.83 "Hg
* Reported Jul 13 4:00 AM — Jul 28 4:30 AM, Yekaterinburg, Weather by CustomWeather, © 2016

Note: Actual official high and low records may vary slightly from our data, if they occured in-between our weather recording intervals... More about our weather records

Advertising

Yekaterinburg Weather History for the Previous 24 Hours

Scroll right to see more
 ConditionsComfort  
Time TempWeatherWind HumidityBarometerVisibility
4:30 AM
Thu, Jul 28
55 °FCool.1 mph100%29.86 "Hg2 mi
4:00 AM55 °FCool.1 mph100%29.86 "Hg1 mi
3:30 AM57 °FCool.1 mph100%29.86 "Hg1 mi
3:00 AM59 °FCool.1 mph100%29.86 "Hg0 mi
2:30 AM57 °FCool.No wind100%29.86 "Hg1 mi
2:00 AM61 °FClear.1 mph100%29.89 "Hg10 mi
1:30 AM61 °FPassing clouds.1 mph100%29.89 "HgN/A
1:00 AM63 °FPassing clouds.1 mph100%29.89 "HgN/A
12:30 AM63 °FPassing clouds.3 mph100%29.89 "HgN/A
12:00 AM63 °FPassing clouds.1 mph100%29.89 "HgN/A
11:30 PM
Wed, Jul 27
63 °FPassing clouds.8 mph100%29.89 "HgN/A
11:00 PM64 °FSprinkles. Passing clouds.6 mph88%29.89 "Hg6 mi
10:30 PM66 °FThundershowers. Passing clouds.8 mph88%29.92 "HgN/A
10:00 PM64 °FPassing clouds.1 mph100%29.92 "HgN/A
9:30 PM64 °FPassing clouds.1 mph100%29.89 "Hg6 mi
9:00 PM68 °FSunny.1 mph88%29.89 "Hg10 mi
8:30 PM68 °FSunny.1 mph88%29.89 "Hg10 mi
8:00 PM68 °FSunny.3 mph88%29.89 "Hg10 mi
7:30 PM70 °FScattered clouds.3 mph83%29.89 "HgN/A
7:00 PM70 °FScattered clouds.6 mph83%29.92 "HgN/A
6:30 PM70 °FScattered clouds.6 mph83%29.92 "HgN/A
6:00 PM68 °FScattered clouds.6 mph83%29.92 "HgN/A
5:30 PM66 °FScattered clouds.3 mph94%29.92 "HgN/A
5:00 PM63 °FScattered clouds.3 mph100%29.92 "HgN/A
4:30 PM61 °FSprinkles. Scattered clouds.3 mph100%29.92 "Hg6 mi
4:00 PM61 °FThunderstorms. Scattered clouds.3 mph100%29.95 "Hg4 mi
3:30 PM61 °FThunderstorms. Scattered clouds.8 mph100%29.98 "Hg6 mi
3:00 PM59 °FThunderstorms. Scattered clouds.20 mph100%29.95 "Hg3 mi
2:30 PM79 °FThunderstorms. Scattered clouds.6 mph42%29.92 "HgN/A
2:00 PM81 °FScattered clouds.6 mph42%29.92 "HgN/A
1:30 PM81 °FScattered clouds.6 mph45%29.92 "HgN/A
1:00 PM79 °FScattered clouds.3 mph48%29.92 "HgN/A
12:30 PM81 °FScattered clouds.3 mph45%29.95 "HgN/A
12:00 PM77 °FPassing clouds.3 mph51%29.95 "HgN/A
11:30 AM77 °FPassing clouds.6 mph51%29.95 "HgN/A
11:00 AM75 °FPassing clouds.3 mph54%29.95 "HgN/A
10:30 AM75 °FSunny.3 mph50%29.98 "Hg10 mi
10:00 AM73 °FPassing clouds.3 mph57%29.98 "HgN/A
9:30 AM73 °FPassing clouds.3 mph57%29.98 "HgN/A
9:00 AM70 °FSunny.1 mph64%29.98 "Hg10 mi
8:30 AM66 °FSunny.1 mph68%29.98 "Hg10 mi
8:00 AM63 °FSunny.1 mph77%29.98 "Hg10 mi
7:30 AM59 °FSunny.1 mph88%29.98 "Hg10 mi
7:00 AM57 °FSunny.No wind94%29.98 "Hg10 mi
6:30 AM54 °FClear.No wind100%29.98 "Hg6 mi
6:00 AM50 °FFog.1 mph100%29.98 "Hg5 mi
5:30 AM48 °FFog.1 mph100%29.98 "Hg6 mi
5:00 AM48 °FFog.No wind100%29.98 "Hg5 mi
Weather by CustomWeather, © 2016

See weather overviewHow to use our weather pages